COSMOS 2228

导读 | 星芒AI

COSMOS 2228 是一颗由俄罗斯发射的军用卫星,于1992年12月19日使用质子-K火箭从拜科努尔航天发射场送入轨道。该卫星属于俄罗斯的军事侦察卫星系列,主要用于电子情报收集和监视任务。其具体轨道参数和任务细节未公开,属于高度机密。COSMOS 2228 在轨运行多年,是冷战后期至后冷战时期俄罗斯空间监视能力的重要组成部分。

基本信息
目录编号:
22286
目录名称:
COSMOS 2228
国际标识:
1992-094A
轨道中心:
EARTH
卫星名称:
COSMOS 2228
卫星全名:
--
卫星状态:
在轨 (已飞行11996 天)
发射日期:
1992-12-25 UTC
国别 :
俄罗斯(独联体) (CIS)
星等 :
--
轨道信息
数据来源 国际轨道数据
星历时间: 2025-10-28T23:01:34+0800
16小时前
查看轨道信息
半长轴: 6956.078km
偏心率: 0.0018785
轨道倾角: 82.521°
近地点辐角 31.099°
升交点赤经 3.690°
平近点角 329.134°
近地点: 564.876km
远地点: 591.01km
周期: 96.229分钟
每日圈数: 14.964292
详细信息
使用方式:
暂无
2D轨道图
3D轨道图
轨道高度分析图
轨道倾角分析图
轨道综合分析图
查看轨道综合分析图